United States

Ashburn, VA Weather Archive

Below you will find the last 24 hours of weather readings for Ashburn VA

Ashburn VA Today's Weather Data

Observed at: Ashburn, VA

Hour Observerd Temp Pressure Visibility Humidity Dew Point Wind
02:00 Mostly Cloudy 36°F (2.2°C) 101.59 kPa 10 miles 87% 32°F (0°C) 4 mph W 263.75°
01:00 Overcast 38°F (3.3°C) 101.59 kPa 10 miles 55% 23°F (-5°C) 9 mph NW 308.75°17 mph
00:00 Partly Cloudy 41°F (5°C) 101.59 kPa 10 miles 66% 30.2°F (-1°C) 3 mph NW 308.75°
23:00 Overcast 45°F (7.2°C) 101.59 kPa 10 miles 57% 30.2°F (-1°C) 9 mph W 263.75°
22:00 Overcast 43°F (6.1°C) 101.59 kPa 10 miles 57% 28.4°F (-2°C) 6 mph W 263.75°16 mph
21:00 Overcast 45°F (7.2°C) 101.59 kPa 10 miles 46% 24.8°F (-4°C) 4 mph NW 308.75°
20:00 Overcast 45°F (7.2°C) 101.59 kPa 10 miles 46% 24.8°F (-4°C) 4 mph NW 308.75°17 mph
19:00 Mostly Cloudy 45°F (7.2°C) 101.59 kPa 10 miles 43% 23°F (-5°C) 10 mph NW 308.75°17 mph
18:00 Overcast 46°F (7.8°C) 101.59 kPa 10 miles 40% 23°F (-5°C) 12 mph NW 308.75°24 mph
17:00 Mostly Cloudy 50°F (10°C) 101.59 kPa 10 miles 37% 24.8°F (-4°C) 17 mph NW 308.75°24 mph
16:00 Overcast 48°F (8.9°C) 101.59 kPa 10 miles 40% 24.8°F (-4°C) 19 mph NW 308.75°32 mph
15:00 Overcast 46°F (7.8°C) 101.59 kPa 10 miles 40% 23°F (-5°C) 15 mph NW 308.75°31 mph
14:00 Overcast 46°F (7.8°C) 101.59 kPa 10 miles 40% 23°F (-5°C) 18 mph NW 308.75°29 mph
13:00 Overcast 46°F (7.8°C) 101.59 kPa 10 miles 40% 23°F (-5°C) 16 mph NW 308.75°29 mph
12:00 Overcast 45°F (7.2°C) 101.59 kPa 10 miles 49% 26.6°F (-3°C) 12 mph W 263.75°20 mph
11:00 Overcast 45°F (7.2°C) 101.59 kPa 10 miles 49% 26.6°F (-3°C) 12 mph W 263.75°20 mph
10:00 Overcast 43°F (6.1°C) 101.59 kPa 10 miles 53% 26.6°F (-3°C) 19 mph NW 308.75°25 mph
09:00 Overcast 41°F (5°C) 101.59 kPa 10 miles 57% 26.6°F (-3°C) 19 mph NW 308.75°32 mph
08:00 Overcast 41°F (5°C) 101.59 kPa 10 miles 57% 26.6°F (-3°C) 16 mph W 263.75°27 mph
07:00 Partly Cloudy 37°F (2.8°C) 101.59 kPa 10 miles 65% 26.6°F (-3°C) 4 mph W 263.75°19 mph
06:00 Partly Cloudy 36°F (2.2°C) 101.59 kPa 10 miles 70% 26.6°F (-3°C) 3 mph SW 218.75°19 mph
05:00 Overcast 36°F (2.2°C) 98.21 kPa 10 miles 65% 24.8°F (-4°C) 4 mph SW 218.75°23 mph
04:00 Partly Cloudy 34°F (1.1°C) 98.21 kPa 10 miles 70% 24.8°F (-4°C) 3 mph S 173.75°23 mph
03:00 Fair 34°F (1.1°C) 98.21 kPa 10 miles 52% 18°F (-7.8°C) 8 mph NW 308.75°


Home | Earthquakes | About Us | Contact Us | Privacy

Copyright Friendly Forecast 2012 - 2021